Regional Weather Roundup
Issued by NWS Glasgow, MT

Home | Current Version | Previous Version | Text Only | Print | Product List | Glossary On
Versions: 1 2 3 4 5 6 7 8 9 10 11 12 13 14 15 16 17 18 19 20 21 22 23 24 25 26 27 28 29 30 31 32 33 34 35 36 37 38 39 40 41 42 43 44 45 46 47 48 49 50
000
ASUS45 KGGW 210315
RWRGGW
HOURLY WEATHER ROUNDUP FOR NORTHEAST MONTANA
NATIONAL WEATHER SERVICE GLASGOW MONTANA
800 PM MST THU NOV 20 2014

NOTE: "FAIR" INDICATES FEW OR NO CLOUDS BELOW 12,000 FEET WITH NO
SIGNIFICANT WEATHER AND/OR OBSTRUCTIONS TO VISISBILITY.

NORTHEAST MONTANA


CITY           SKY/WX    TMP DP  RH WIND       PRES   REMARKS
GLASGOW        PTCLDY    16  12  84 E7        29.75F
PLENTYWOOD       N/A     17  17 100 SE6         N/A
WOLF POINT     CLEAR     15  12  88 CALM      29.77F
JORDAN           N/A     20  16  84 CALM      29.77S
WINNETT          N/A     30  29  96 W1          N/A
SIDNEY         PTCLDY    18  12  79 SE9       29.81S
GLENDIVE       PTCLDY    19  18  93 SW10      29.80F
MALTA            N/A     17  16  95 W1          N/A

FORT PECK REPORTS


CITY           SKY/WX    TMP DP  RH WIND       PRES   REMARKS
FORT PECK        N/A     28  26  92 S6          N/A
THE PINES        N/A     30  27  88 SW3         N/A

SOUTHEAST MONTANA


CITY           SKY/WX    TMP DP  RH WIND       PRES   REMARKS
BILLINGS       MOCLDY    36  20  52 SW16      29.84S
MILES CITY     CLEAR     25  21  85 SE6       29.81S
BAKER          CLEAR     19  16  88 SE6       29.83R
LIVINGSTON     MOCLDY    44  23  43 W16G30    29.88S

CENTRAL MONTANA


CITY           SKY/WX    TMP DP  RH WIND       PRES   REMARKS
HAVRE          CLOUDY    31  25  78 SW14      29.73F
LEWISTOWN      MOCLDY    42  26  53 SW16      29.78F
GREAT FALLS    PTCLDY    41  29  62 SW22      29.76F
CUT BANK       PTCLDY    39  27  62 W25G33    29.71F
HELENA         CLOUDY    41  28  60 W6        29.89F
BUTTE          CLEAR     32  25  75 N6        29.93F
BOZEMAN        CLOUDY    31  26  82 SE5       29.92S

WESTERN MONTANA


CITY           SKY/WX    TMP DP  RH WIND       PRES   REMARKS
MISSOULA       CLOUDY    27  24  89 NW3       30.01S
KALISPELL      NOT AVBL

NORTH DAKOTA


CITY           SKY/WX    TMP DP  RH WIND       PRES   REMARKS
WILLISTON      PTCLDY    19  14  81 CALM      29.79F
DICKINSON      CLEAR     23  17  78 S16       29.80F
MINOT          MOCLDY    17  11  77 S9        29.84F
BISMARCK       CLEAR     12   6  77 SE9       29.97F

SOUTHERN SASKATCHEWAN


CITY           SKY/WX    TMP DP  RH WIND       PRES   REMARKS
REGINA         PTCLDY    16  14  93 SE13      29.71F
ESTEVAN        PTCLDY    12   9  85 SE7       29.76F
SWIFT CURRENT  CLOUDY    28  23  80 SW15      29.61F




USA.gov is the U.S. government's official web portal to all federal, state and local government web resources and services.